Weather Roundup
Issued by NWS

Home | Current Version | Previous Version | Graphics & Text | Print | Product List | Glossary Off
Versions: 1 2 3 4 5 6 7 8 9 10 11 12 13 14 15 16 17 18 19 20 21 22 23 24 25 26 27 28 29 30 31 32 33 34 35 36 37 38 39 40 41 42 43 44 45 46 47 48 49 50

822
NZUS93 KARX 232310
HRRWXR

CURRENT HOURLY OBSERVATIONS ACROSS
MUCH OF THE UPPER MISSISSIPPI VALLEY
NATIONAL WEATHER SERVICE LA CROSSE WI
600 PM CDT SUN APR 23 2017


...SOUTHEAST MINNESOTA...


CITY           SKY/WX    TMP DP  RH WIND       PRES   REMARKS
ROCHESTER      MOSUNNY   68  31  25 SW13      29.95F
ROCHESTER/MAYO FAIR      69  29  22 S10G16    29.95F
WINONA         CLOUDY    70  32  24 CALM      29.95F
AUSTIN         CLOUDY    68  28  22 SW14      29.94F
ALBERT LEA     MOSUNNY   68  19  15 S12G17    29.93F
DODGE CENTER   CLOUDY    68  28  22 S17       29.94F
PRESTON        CLOUDY    67  27  21 SW9       29.97F
OWATONNA       PTSUNNY   70  23  17 S13       29.91F
FARIBAULT      CLOUDY    70  28  21 S8        29.91F
$$

...ELSEWHERE IN MINNESOTA...


CITY           SKY/WX    TMP DP  RH WIND       PRES   REMARKS
MINNEAPOLIS    CLOUDY    69  33  26 VRB3      29.89F
INTNL FALLS    CLOUDY    37  12  35 E9        30.11F WCI  30
DULUTH         CLOUDY    34  28  79 E12       30.09S WCI  25
RED WING       MOSUNNY   70  27  19 S8        29.90F
REDWOOD FALLS  MOSUNNY   73  27  18 SW21G29   29.83F
MANKATO        PTSUNNY   71  28  20 SW13      29.89F
WORTHINGTON    MOSUNNY   69  27  20 S21G26    29.87F
FAIRMONT       CLOUDY    70  29  21 SW14      29.90F
$$

...SOUTHWEST WISCONSIN...


CITY           SKY/WX    TMP DP  RH WIND       PRES   REMARKS
LA CROSSE      MOSUNNY   73  30  20 SW7       29.96S
PRAIRIE DU CHI CLOUDY    71  29  20 SW3       29.98S
BOSCOBEL       CLOUDY    72  30  21 W7        29.99S
LONE ROCK      SUNNY     71  31  22 W8        29.99R
PLATTEVILLE    SUNNY     70  33  25 S5        30.01S
FORT MC COY    SUNNY     71  32  23 W5        29.98S
CAMP DOUGLAS   SUNNY     70  32  24 W9        29.97F
MAUSTON-NEW LI CLEAR     71  33  24 W6        29.97F
VIROQUA        FAIR      68  31  25 SW9       30.00S
WIS DELLS      SUNNY     70  31  23 W6        29.98S
$$

...ELSEWHERE IN WISCONSIN...


CITY           SKY/WX    TMP DP  RH WIND       PRES   REMARKS
MILWAUKEE      MOSUNNY   43  36  76 N15       30.10R
MADISON        PTSUNNY   70  34  26 S5        29.99S
GREEN BAY      SUNNY     47  38  71 NE17      30.10R
EAU CLAIRE     PTSUNNY   67  40  37 E5        29.94F
BLACK RVR FLS  FAIR      72  29  20 W6        29.96F
MEDFORD        CLOUDY    61  40  44 CALM      29.98F
WAUSAU         CLOUDY    59  42  53 SE13      29.99S
WIS RAPIDS     MOSUNNY   64  45  49 SE15      30.00S
MARSHFIELD     MOSUNNY   68  36  30 N3        29.96F
RICE LAKE      CLOUDY    58  41  51 N14       29.98F
$$

...NORTHEAST IOWA...


CITY           SKY/WX    TMP DP  RH WIND       PRES   REMARKS
WATERLOO       SUNNY     71  29  21 S14       29.97F
DUBUQUE        SUNNY     69  34  27 SW6       30.02R
DECORAH        CLOUDY    70  27  19 VRB7G16   29.97F
MASON CITY     PTSUNNY   70  26  19 SW14      29.96F
CHARLES CITY   SUNNY     72  27  18 SW8G15    29.97F
OELWEIN        SUNNY     70  28  21 SW13      29.99S
$$

...ELSEWHERE IN IOWA...


CITY           SKY/WX    TMP DP  RH WIND       PRES   REMARKS
DES MOINES     CLOUDY    70  29  21 S12       29.99F
IOWA CITY      CLOUDY    72  31  22 VRB6      30.02F
FORT DODGE     PTSUNNY   70  28  21 SW13      29.96F
MARSHALLTOWN   SUNNY     70  33  25 S15       29.98F
CEDAR RAPIDS   CLOUDY    69  29  22 S10       30.00S
$$

...NORTHERN ILLINOIS...


CITY           SKY/WX    TMP DP  RH WIND       PRES   REMARKS
CHICAGO-OHARE  MOSUNNY   68  30  24 E13       30.03S
CHICAGO-MIDWAY MOSUNNY   67  32  27 E14       30.05S
MOLINE         SUNNY     71  29  21 CALM      30.01F
ROCKFORD       MOSUNNY   71  35  26 S3        30.03S
PEORIA         SUNNY     70  28  21 NE3       30.03F
$$

NOTE: "FAIR" INDICATES FEW OR NO CLOUDS BELOW 12,000 FEET WITH NO
SIGNIFICANT WEATHER AND/OR OBSTRUCTIONS TO VISIBILITY. WIND
SPEEDS ARE IN MILES-PER-HOUR.




USA.gov is the U.S. government's official web portal to all federal, state and local government web resources and services.